N805AB KDAY-KCMH

Flight info

Callsign N805AB
Flight time 0h 38m
Altitude VFR/075
Route
Aircraft P180/L-DOV/C

Departure

Time 2026-05-09 00:04
Airport James M. Cox Dayton International Airport (KDAY)

Arrival

Time 2026-05-09 00:42
Airport John Glenn Columbus International Airport (KCMH)
Time Latitude Longitude Altitude Speed Heading
2026-05-08 23:56 39.90476 -84.23438 997 ft 0 kts 327°
2026-05-08 23:58 39.90477 -84.23438 997 ft 0 kts 331°
2026-05-08 23:59 39.90480 -84.23424 997 ft 3 kts 116°
2026-05-08 23:59 39.90461 -84.23376 997 ft 9 kts 117°
2026-05-08 23:59 39.90444 -84.23278 997 ft 13 kts 75°
2026-05-08 23:59 39.90500 -84.23154 997 ft 18 kts 57°
2026-05-09 00:00 39.90577 -84.23004 999 ft 22 kts 56°
2026-05-09 00:00 39.90673 -84.22822 1002 ft 26 kts 54°
2026-05-09 00:00 39.90787 -84.22615 1002 ft 30 kts 55°
2026-05-09 00:00 39.90910 -84.22382 1000 ft 33 kts 56°
2026-05-09 00:01 39.91038 -84.22139 999 ft 33 kts 56°
2026-05-09 00:01 39.91168 -84.21891 1001 ft 33 kts 54°
2026-05-09 00:01 39.91292 -84.21660 1004 ft 11 kts 56°
2026-05-09 00:01 39.91320 -84.21606 1004 ft 9 kts 56°
2026-05-09 00:02 39.91334 -84.21561 1005 ft 0 kts 92°
2026-05-09 00:02 39.91330 -84.21545 1005 ft 4 kts 126°
2026-05-09 00:02 39.91302 -84.21495 1005 ft 9 kts 127°
2026-05-09 00:02 39.91239 -84.21456 1004 ft 13 kts 194°
2026-05-09 00:03 39.91116 -84.21591 1001 ft 38 kts 235°
2026-05-09 00:03 39.90835 -84.22122 1001 ft 105 kts 234°
2026-05-09 00:03 39.90352 -84.23017 1205 ft 132 kts 239°
2026-05-09 00:03 39.89796 -84.24081 1522 ft 145 kts 237°
2026-05-09 00:04 39.89181 -84.25228 1762 ft 171 kts 237°
2026-05-09 00:04 39.88508 -84.26498 2507 ft 169 kts 237°
2026-05-09 00:04 39.87840 -84.27811 2996 ft 180 kts 237°
2026-05-09 00:04 39.87122 -84.29254 3082 ft 204 kts 237°
2026-05-09 00:05 39.86389 -84.30948 2927 ft 224 kts 248°
2026-05-09 00:05 39.86236 -84.32996 2844 ft 235 kts 276°
2026-05-09 00:05 39.86972 -84.34926 2713 ft 249 kts 310°
2026-05-09 00:05 39.88562 -84.35919 2533 ft 267 kts 347°
2026-05-09 00:06 39.89805 -84.35875 2507 ft 272 kts
2026-05-09 00:06 39.91573 -84.35086 2723 ft 267 kts 25°
2026-05-09 00:06 39.93209 -84.32748 2891 ft 270 kts 60°
2026-05-09 00:06 39.94101 -84.30591 2970 ft 271 kts 62°
2026-05-09 00:07 39.94980 -84.28391 2890 ft 277 kts 63°
2026-05-09 00:07 39.95850 -84.26137 2874 ft 278 kts 64°
2026-05-09 00:07 39.96386 -84.24625 2882 ft 277 kts 70°
2026-05-09 00:07 39.96867 -84.22200 2878 ft 277 kts 76°
2026-05-09 00:08 39.97518 -84.19833 2872 ft 278 kts 67°
2026-05-09 00:08 39.98322 -84.17539 2876 ft 279 kts 65°
2026-05-09 00:08 39.99148 -84.15253 2875 ft 279 kts 65°
2026-05-09 00:08 40.00246 -84.12229 2868 ft 279 kts 65°
2026-05-09 00:09 40.00808 -84.10688 2929 ft 276 kts 64°
2026-05-09 00:09 40.01606 -84.08503 3436 ft 259 kts 64°
2026-05-09 00:09 40.02374 -84.06417 3928 ft 252 kts 65°
2026-05-09 00:09 40.03145 -84.04373 4365 ft 250 kts 64°
2026-05-09 00:10 40.03912 -84.02372 4805 ft 250 kts 65°
2026-05-09 00:10 40.04696 -84.00346 5259 ft 250 kts 64°
2026-05-09 00:10 40.05474 -83.98309 5677 ft 251 kts 66°
2026-05-09 00:10 40.05990 -83.96143 6092 ft 250 kts 81°
2026-05-09 00:11 40.06327 -83.93917 6508 ft 249 kts 85°
2026-05-09 00:11 40.06447 -83.91671 6875 ft 250 kts 92°
2026-05-09 00:11 40.06480 -83.89336 6988 ft 263 kts 93°
2026-05-09 00:11 40.06493 -83.86890 6997 ft 275 kts 93°
2026-05-09 00:12 40.06500 -83.84358 7004 ft 282 kts 93°
2026-05-09 00:12 40.06507 -83.81777 7009 ft 286 kts 93°
2026-05-09 00:12 40.06610 -83.79169 7018 ft 291 kts 83°
2026-05-09 00:12 40.07103 -83.76631 7020 ft 295 kts 75°
2026-05-09 00:13 40.07725 -83.74070 7022 ft 296 kts 73°
2026-05-09 00:13 40.08363 -83.71516 7024 ft 297 kts 73°
2026-05-09 00:13 40.09006 -83.68955 7025 ft 297 kts 73°
2026-05-09 00:13 40.09656 -83.66389 7024 ft 298 kts 73°
2026-05-09 00:14 40.10310 -83.63819 7023 ft 299 kts 73°
2026-05-09 00:14 40.10964 -83.61244 7022 ft 299 kts 73°
2026-05-09 00:14 40.11619 -83.58672 7023 ft 298 kts 73°
2026-05-09 00:14 40.12271 -83.56103 7012 ft 298 kts 73°
2026-05-09 00:15 40.12924 -83.53531 6939 ft 300 kts 73°
2026-05-09 00:15 40.13579 -83.50961 6778 ft 304 kts 73°
2026-05-09 00:15 40.14250 -83.48333 6620 ft 306 kts 73°
2026-05-09 00:15 40.14748 -83.45637 6466 ft 305 kts 83°
2026-05-09 00:16 40.15026 -83.42895 6319 ft 304 kts 86°
2026-05-09 00:16 40.15259 -83.40153 6178 ft 303 kts 87°
2026-05-09 00:16 40.15480 -83.37413 6026 ft 303 kts 87°
2026-05-09 00:16 40.15627 -83.34673 5871 ft 302 kts 91°
2026-05-09 00:17 40.15675 -83.31935 5710 ft 301 kts 92°
2026-05-09 00:17 40.15609 -83.29218 5567 ft 298 kts 99°
2026-05-09 00:17 40.15357 -83.26601 5422 ft 288 kts 102°
2026-05-09 00:17 40.15079 -83.24091 5254 ft 270 kts 103°
2026-05-09 00:18 40.14815 -83.21701 5082 ft 264 kts 103°
2026-05-09 00:18 40.14552 -83.19333 4891 ft 261 kts 103°
2026-05-09 00:18 40.14287 -83.16994 4717 ft 259 kts 103°
2026-05-09 00:18 40.14020 -83.14673 4545 ft 258 kts 103°
2026-05-09 00:19 40.13751 -83.12360 4362 ft 257 kts 103°
2026-05-09 00:19 40.13478 -83.10065 4191 ft 255 kts 103°
2026-05-09 00:19 40.13199 -83.07778 4019 ft 254 kts 103°
2026-05-09 00:19 40.12918 -83.05507 3853 ft 253 kts 103°
2026-05-09 00:20 40.12632 -83.03240 3689 ft 252 kts 103°
2026-05-09 00:20 40.12230 -83.01026 3535 ft 251 kts 104°
2026-05-09 00:20 40.12063 -82.98758 3367 ft 250 kts 94°
2026-05-09 00:20 40.12018 -82.96500 3199 ft 247 kts 93°
2026-05-09 00:21 40.11982 -82.94265 3010 ft 245 kts 92°
2026-05-09 00:21 40.11941 -82.92098 2901 ft 230 kts 92°
2026-05-09 00:21 40.11905 -82.90081 2869 ft 215 kts 93°
2026-05-09 00:21 40.11874 -82.88201 2820 ft 206 kts 92°
2026-05-09 00:22 40.11845 -82.86365 2744 ft 199 kts 92°
2026-05-09 00:22 40.11816 -82.84583 2655 ft 193 kts 92°
2026-05-09 00:22 40.11785 -82.82892 2555 ft 179 kts 92°
2026-05-09 00:22 40.11750 -82.81309 2433 ft 170 kts 92°
2026-05-09 00:23 40.11716 -82.79791 2286 ft 165 kts 92°
2026-05-09 00:23 40.11686 -82.78343 2271 ft 153 kts 92°
2026-05-09 00:23 40.11662 -82.77009 2269 ft 142 kts 92°
2026-05-09 00:23 40.11628 -82.75721 2269 ft 149 kts 92°
2026-05-09 00:24 40.11593 -82.74278 2303 ft 166 kts 93°
2026-05-09 00:24 40.11563 -82.72732 2424 ft 174 kts 92°
2026-05-09 00:24 40.11533 -82.71127 2576 ft 179 kts 93°
2026-05-09 00:24 40.11510 -82.69490 2740 ft 182 kts 93°
2026-05-09 00:25 40.11490 -82.67828 2898 ft 184 kts 92°
2026-05-09 00:25 40.11471 -82.66141 2973 ft 191 kts 92°
2026-05-09 00:25 40.11454 -82.64388 2972 ft 200 kts 92°
2026-05-09 00:25 40.11436 -82.62544 2970 ft 205 kts 92°
2026-05-09 00:26 40.11420 -82.60666 2975 ft 208 kts 92°
2026-05-09 00:26 40.11401 -82.58758 2971 ft 212 kts 92°
2026-05-09 00:26 40.11382 -82.56820 2965 ft 214 kts 92°
2026-05-09 00:26 40.11364 -82.54864 2971 ft 215 kts 92°
2026-05-09 00:27 40.11354 -82.52902 2969 ft 217 kts 92°
2026-05-09 00:27 40.11343 -82.50928 2971 ft 217 kts 92°
2026-05-09 00:27 40.11324 -82.48952 2967 ft 218 kts 92°
2026-05-09 00:27 40.11307 -82.46969 2966 ft 219 kts 92°
2026-05-09 00:28 40.11299 -82.44975 2965 ft 219 kts 92°
2026-05-09 00:28 40.11289 -82.43029 2962 ft 208 kts 92°
2026-05-09 00:28 40.11283 -82.41255 2958 ft 185 kts 92°
2026-05-09 00:28 40.11282 -82.39648 2950 ft 169 kts 92°
2026-05-09 00:29 40.11283 -82.38172 2951 ft 156 kts 94°
2026-05-09 00:29 40.10870 -82.37021 2950 ft 135 kts 155°
2026-05-09 00:29 40.09955 -82.36770 2951 ft 140 kts 183°
2026-05-09 00:29 40.08952 -82.36677 2960 ft 149 kts 182°
2026-05-09 00:30 40.07894 -82.36579 2971 ft 156 kts 182°
2026-05-09 00:30 40.06794 -82.36478 2972 ft 160 kts 182°
2026-05-09 00:30 40.05667 -82.36377 2971 ft 164 kts 182°
2026-05-09 00:30 40.04518 -82.36287 2972 ft 167 kts 182°
2026-05-09 00:31 40.03359 -82.36189 2971 ft 167 kts 182°
2026-05-09 00:31 40.02198 -82.36086 2974 ft 168 kts 182°
2026-05-09 00:31 40.01072 -82.36201 2962 ft 162 kts 209°
2026-05-09 00:31 40.00431 -82.37296 2959 ft 158 kts 259°
2026-05-09 00:32 40.00454 -82.38733 2970 ft 160 kts 272°
2026-05-09 00:32 40.00554 -82.40185 2967 ft 162 kts 272°
2026-05-09 00:32 40.00650 -82.41645 2970 ft 161 kts 270°
2026-05-09 00:32 40.00507 -82.43083 2971 ft 161 kts 261°
2026-05-09 00:33 40.00525 -82.44549 2970 ft 162 kts 272°
2026-05-09 00:33 40.00623 -82.46015 2925 ft 165 kts 272°
2026-05-09 00:33 40.00724 -82.47548 2727 ft 173 kts 272°
2026-05-09 00:33 40.00822 -82.49141 2528 ft 179 kts 272°
2026-05-09 00:34 40.00909 -82.50777 2340 ft 183 kts 272°
2026-05-09 00:34 40.00993 -82.52439 2161 ft 184 kts 270°
2026-05-09 00:34 40.00769 -82.54017 2262 ft 170 kts 252°
2026-05-09 00:34 40.00419 -82.55397 2558 ft 152 kts 251°
2026-05-09 00:35 40.00088 -82.56672 2797 ft 146 kts 251°
2026-05-09 00:35 39.99859 -82.57962 2906 ft 148 kts 260°
2026-05-09 00:35 39.99711 -82.59299 3007 ft 150 kts 261°
2026-05-09 00:35 39.99593 -82.60656 3125 ft 151 kts 264°
2026-05-09 00:36 39.99561 -82.62024 3290 ft 149 kts 267°
2026-05-09 00:36 39.99568 -82.63372 3407 ft 151 kts 268°
2026-05-09 00:36 39.99585 -82.64775 3398 ft 158 kts 268°
2026-05-09 00:36 39.99601 -82.66221 3449 ft 169 kts 268°
2026-05-09 00:37 39.99629 -82.67634 3539 ft 144 kts 269°
2026-05-09 00:37 39.99664 -82.68905 3362 ft 138 kts 269°
2026-05-09 00:37 39.99699 -82.70132 3211 ft 131 kts 268°
2026-05-09 00:37 39.99705 -82.71311 3061 ft 130 kts 267°
2026-05-09 00:38 39.99692 -82.72485 2882 ft 129 kts 267°
2026-05-09 00:38 39.99627 -82.73649 2739 ft 128 kts 263°
2026-05-09 00:38 39.99537 -82.74797 2599 ft 127 kts 263°
2026-05-09 00:38 39.99467 -82.75913 2521 ft 122 kts 266°
2026-05-09 00:39 39.99432 -82.77015 2431 ft 120 kts 266°
2026-05-09 00:39 39.99435 -82.78109 2293 ft 121 kts 271°
2026-05-09 00:39 39.99469 -82.79193 2153 ft 119 kts 271°
2026-05-09 00:39 39.99398 -82.80240 1943 ft 113 kts 255°
2026-05-09 00:40 39.99197 -82.81201 1825 ft 107 kts 256°
2026-05-09 00:40 39.98997 -82.82165 1811 ft 115 kts 255°
2026-05-09 00:40 39.98802 -82.83339 1736 ft 146 kts 260°
2026-05-09 00:41 39.99025 -82.85676 1202 ft 112 kts 283°
2026-05-09 00:41 39.99120 -82.86608 990 ft 98 kts 273°
2026-05-09 00:41 39.99169 -82.87467 840 ft 92 kts 273°
2026-05-09 00:41 39.99211 -82.88205 817 ft 65 kts 274°
2026-05-09 00:42 39.99241 -82.88729 816 ft 53 kts 274°
2026-05-09 00:42 39.99246 -82.89074 814 ft 21 kts 243°
2026-05-09 00:42 39.99200 -82.89120 813 ft 4 kts 202°
2026-05-09 00:42 39.99171 -82.89136 812 ft 0 kts 202°
2026-05-09 00:44 39.99165 -82.89140 811 ft 10 kts 214°
2026-05-09 00:44 39.99066 -82.89220 810 ft 14 kts 220°
2026-05-09 00:44 39.99068 -82.89249 810 ft 0 kts 320°